KMUI

Details ICAO KMUI (MUI)
Name MUIR AAF
Region United States
Timezone America/New_York (UTC-4.0)
Plans Departing 2
Arriving 2
Stats Elevation 489 ft / 149 m (AMSL)
Location 40.435220° -76.568977°
Runways 1
Magnetic Variation 11.440° W
Sunrise 2018-05-20 09:47:01 UTC / 2018-05-20 05:47:01 Local
Sunset 2018-05-21 00:21:27 UTC / 2018-05-20 20:21:27 Local
Advertisement - Login to hide

Runways

ID Width Length Bearing (true) Bearing (mag) Surface Threshold Offset Overrun Length
07 100 ft / 30 m 3,962 ft / 1,208 m 59.58° 71.02° Asphalt 400 ft / 122 m 0 ft / 0 m
25 100 ft / 30 m 3,962 ft / 1,208 m 239.59° 251.03° Asphalt 100 ft / 30 m 340 ft / 104 m

Map

Weather


0- 5 10 15 20 25 30 35+ Temperature / ° C

Clouds and Precipitation
Forecast for 2018-05-20 12:00 UTC. Updated an hour ago

Ground ~20,000 ft ~40,000 ft Winds

METAR

KMUI 200956Z AUTO 00000KT 1/8SM FG VV001 15/15 A2998 RMK AO2 SLP155 T01520152 RVRNO $

TAF

Not found

Frequencies

Unicom 126.20 MHz CTAF
Tower 126.20 MHz TWR
Ground 121.62 MHz GND
Approach 118.25 MHz HARRISBURG APP/DEP
Warning: Do not use this data for real-world aviation or navigation. No guarantee of current accuracy is given.